Location: Newark
(49.2191°N, 12.6671°E)
Time: 13:06:08
(UTC+00:00)

Transit 2A - Pass Details

Date: 28 January 2020
Orbit: 599 x 959 km, 66.7° (Epoch: 25 February)

Event Time Altitude Azimuth Distance (km) Brightness Sun altitude
Rises 19:34:37 0° 241° (WSW) 2,863 9.6 -35.1°
Reaches altitude 10° 19:37:02 10° 251° (WSW) 1,947 8.7 -35.5°
Enters shadow 19:37:56 15° 257° (WSW) 1,631 8.3 -35.6°
